Regional Weather Roundup
Issued by NWS

Home | Current Version | Previous Version | Graphics & Text | Print | Product List | Glossary On
Versions: 1 2 3 4 5 6 7 8 9 10 11 12 13 14 15 16 17 18 19 20 21 22 23 24 25 26 27 28 29 30 31 32 33 34 35 36 37 38 39 40 41 42 43 44 45 46 47 48 49 50
000
ASUS43 KLMK 041510
RWRKY
KENTUCKY REGIONAL WEATHER ROUNDUP
NATIONAL WEATHER SERVICE LOUISVILLE KY
1100 AM EDT TUE AUG 04 2015

NOTE "FAIR" INDICATES FEW OR NO CLOUDS BELOW 12,000 FEET
WITH NO SIGNIFICANT WEATHER AND/OR OBSTRUCTIONS TO VISIBILITY.

KYZ001>023-026-027-061>063-070>075-041600-
WESTERN AND SOUTH CENTRAL KENTUCKY

CITY           SKY/WX    TMP DP  RH WIND       PRES   REMARKS
PADUCAH        SUNNY     86  75  69 SW3       29.98S HX  95
HENDERSON      MOSUNNY   82  70  65 CALM      29.99R
OWENSBORO      MOSUNNY   86  72  62 S3        30.01R HX  92
HOPKINSVILLE   MOSUNNY   85  73  65 SW5       30.01R HX  92
BOWLING GREEN  CLOUDY    86  74  67 SW6       30.01F HX  94
GLASGOW        MOSUNNY  N/A N/A N/A SW6       30.02S
$$

KYZ024-025-028>034-038-045-046-053-041600-
NORTH CENTRAL KENTUCKY

CITY           SKY/WX    TMP DP  RH WIND       PRES   REMARKS
LOUISVILLE/SDF CLOUDY    81  67  62 SW3       29.98F
LOUISVILLE/LOU CLOUDY    82  67  60 CALM      29.99F
FORT KNOX      CLOUDY    79  70  75 SW6       30.00R
$$

KYZ035>037-039>044-047>052-055>060-089>105-041600-
NORTHEAST KENTUCKY

CITY           SKY/WX    TMP DP  RH WIND       PRES   REMARKS
LEXINGTON      PTSUNNY   81  70  69 SW6       30.02R
COVINGTON      PTSUNNY   79  65  62 W9        30.00R
FRANKFORT      PTSUNNY   82  68  62 VRB3      30.00S
$$

KYZ054-064>069-076>088-106>120-041600-
SOUTHEAST KENTUCKY

CITY           SKY/WX    TMP DP  RH WIND       PRES   REMARKS
JACKSON        SUNNY     79  72  79 CALM      30.04R
LONDON         PTSUNNY   82  70  66 W7        30.05R
SOMERSET       PTSUNNY   81  70  69 W6        30.05S
MIDDLESBORO    MOSUNNY   79  71  77 CALM      30.06S
MONTICELLO     MOSUNNY   86  75  69 SW5       30.07R HX  95
$$




USA.gov is the U.S. government's official web portal to all federal, state and local government web resources and services.